This demonstration page uses our WeatherBlox Daily Observations layout. Learn more.

Left ArrowRight Arrow

40.92501, -98.34201

Hourly Observations for May 6, 2020

Temp ( °F °C ) Dew Point ( °F °C ) Humidity (%) Winds ( mph kmh ) Pressure ( in mb ) Visibility ( mi km ) Precip ( " mm )
12:53 am 00:53 Clear 47 8.3 39 3.9 74 74 W 8 13 30.24 1024 10 16 0.00 0.00
1:53 am 01:53 Clear 46 7.8 37 2.8 71 71 NW 8 13 30.27 1025 10 16 0.00 0.00
2:53 am 02:53 Clear 46 7.8 37 2.8 71 71 NW 8 13 30.28 1025 10 16 0.00 0.00
3:53 am 03:53 Clear 45 7.2 37 2.8 74 74 NW 13 20 30.29 1026 10 16 0.00 0.00
4:53 am 04:53 Clear 43 6.1 36 2.2 76 76 WNW 9 15 30.31 1027 10 16 0.00 0.00
5:53 am 05:53 Clear 40 4.4 35 1.7 83 83 NW 9 15 30.32 1027 10 16 0.00 0.00
6:53 am 06:53 Mostly Sunny 42 5.6 37 2.8 82 82 NW 9 15 30.33 1027 10 16 0.00 0.00
7:53 am 07:53 Sunny 45 7.2 38 3.3 77 77 NW 12 19 30.35 1028 10 16 0.00 0.00
8:53 am 08:53 Sunny 49 9.4 39 3.9 69 69 NW 13 20 30.35 1028 10 16 0.00 0.00
9:53 am 09:53 Mostly Cloudy 53 11.7 39 3.9 59 59 NNW 16 26 30.36 1028 10 16 0.00 0.00
10:45 am 10:45 Mostly Sunny 54 12.2 37 2.8 53 53 NNW 14 22 30.33 1027 10 16 0.00 0.00
10:53 am 10:53 Mostly Sunny 55 12.8 39 3.9 55 55 N 16 26 30.36 1028 10 16 0.00 0.00
11:53 am 11:53 Mostly Cloudy 56 13.3 37 2.8 49 49 NNW 17 28 30.35 1028 10 16 0.00 0.00
12:53 pm 12:53 Mostly Cloudy 58 14.4 38 3.3 48 48 NNW 9 15 30.34 1027 10 16 0.00 0.00
1:53 pm 13:53 Partly Cloudy 60 15.6 38 3.3 44 44 N 15 24 30.31 1027 10 16 0.00 0.00
2:53 pm 14:53 Partly Cloudy 62 16.7 38 3.3 41 41 NNW 10 17 30.30 1026 10 16 0.00 0.00
3:53 pm 15:53 Mostly Sunny 63 17.2 38 3.3 40 40 NNW 13 20 30.28 1025 10 16 0.00 0.00
4:53 pm 16:53 Mostly Sunny 62 16.7 36 2.2 38 38 N 9 15 30.27 1025 10 16 0.00 0.00
5:53 pm 17:53 Mostly Sunny 63 17.2 36 2.2 37 37 N 13 20 30.26 1025 10 16 0.00 0.00
6:53 pm 18:53 Sunny 62 16.7 35 1.7 37 37 NE 13 20 30.24 1024 10 16 0.00 0.00
7:53 pm 19:53 Sunny 60 15.6 35 1.7 39 39 NE 10 17 30.23 1024 10 16 0.00 0.00
8:53 pm 20:53 Clear 55 12.8 37 2.8 51 51 ENE 5 7 30.24 1024 10 16 0.00 0.00
9:53 pm 21:53 Clear 52 11.1 39 3.9 61 61 ESE 5 7 30.25 1024 10 16 0.00 0.00
10:53 pm 22:53 Clear 50 10 37 2.8 61 61 E 7 11 30.24 1024 10 16 0.00 0.00
11:53 pm 23:53 Clear 48 8.9 37 2.8 66 66 SE 5 7 30.24 1024 10 16 0.00 0.00

Powered by AerisWeather